Location: B?dargowo
(53.3916°N, 14.4413°E)
Time: 05:13:37
(UTC+00:00)

Cosmos 2184 Rocket - Pass Details

Date: 05 February 2023
Orbit: 958 x 1003 km, 82.9° (Epoch: 24 March)

Event Time Altitude Azimuth Distance (km) Brightness Sun altitude
Rises 18:53:10 0° 350° (N) 3,716 7.3 -27.0°
Reaches altitude 10° 18:55:45 10° 353° (N) 2,757 6.5 -27.4°
Enters shadow 19:01:03 57° 32° (NNE) 1,148 4.2 -28.2°
